Tracking 19827 objects as of 21-Aug-2019
HD Live streaming from Space Station
objects crossing your sky now

TITAN 3C TRANSTAGE DEB

Track TITAN 3C TRANSTAGE DEB now!


NORAD ID: 34169
Int'l Code: 1965-108DC
Perigee: 303.8 km
Apogee: 30,340.7 km
Inclination: 28.1 °
Period: 530.0 minutes
Semi major axis: 21693 km
RCS: 0.01 m2 (small)
Launch date: December 21, 1965
Source: United States (US)
Launch site: AIR FORCE EASTERN TEST RANGE (AFETR)

Note: This is SATELLITE DEBRIS
aabbcc
Your satellite tracking list
Your tracking list is empty




NASA's NSSDC Master Catalog

Two Line Element Set (TLE):
1 34169U 65108DC  18049.59591935 +.00000536 +00000-0 +30779-3 0  9994
2 34169 028.0998 127.4896 6923095 271.8614 064.6925 02.71716971144250
Source of the keplerian elements: AFSPC